"Timestamp","TZ","WindDir_Mean (deg)","WindSpd_Mean (km/h)","WindSpd_Min (km/h)","WindSpd_Max (km/h)","Temp_Mean (deg)","RH_Mean (%)","MSLP_Mean (hPa)","Rain_Acc (mm)","Rain_Intensity (mm/h)","Hail_Acc (hits/cm2)","Hail_Intensity (hits/cm2hr)","Solar_Mean (W/m2)"
2021/08/17 00:00:00.014,n,175,0.72,0.36,0.72,17.6,57.1,1021.02,0,0,0,0,0.026131
2021/08/17 00:01:00.000,n,195,0.72,0,0.72,17.5,57.4,1021.02,0,0,0,0,0.027885
2021/08/17 00:02:00.000,n,111,2.16,1.8,2.52,17.4,57.9,1021.02,0,0,0,0,0.026131
2021/08/17 00:03:00.000,n,55,1.08,1.08,1.44,17.3,58.7,1020.92,0,0,0,0,0.027008
2021/08/17 00:04:00.003,n,87,1.8,1.8,2.16,17.2,59.3,1021.02,0,0,0,0,0.025291
2021/08/17 00:05:00.001,n,117,1.8,1.44,2.16,17.1,59.5,1020.92,0,0,0,0,0.020065
2021/08/17 00:06:00.000,n,180,1.8,1.8,2.16,17,59.6,1020.92,0,0,0,0,0.023537
2021/08/17 00:07:00.011,n,231,1.44,1.08,1.8,16.9,59.9,1020.92,0,0,0,0,0.027008
2021/08/17 00:08:00.008,n,203,2.52,2.52,2.52,16.9,61.1,1020.92,0,0,0,0,0.018311
2021/08/17 00:09:00.005,n,244,3.96,3.6,4.32,16.9,60.1,1020.92,0,0,0,0,0.020905
2021/08/17 00:10:00.000,n,245,3.6,3.24,4.32,16.9,59.8,1020.92,0,0,0,0,0.018311
2021/08/17 00:11:00.001,n,257,4.32,3.6,5.04,16.9,59.8,1020.92,0,0,0,0,0.027885
2021/08/17 00:12:00.000,n,252,4.32,4.32,4.68,16.8,60.4,1020.92,0,0,0,0,0.033989
2021/08/17 00:13:00.006,n,249,3.24,2.88,3.6,16.8,59.6,1020.82,0,0,0,0,0.033112
2021/08/17 00:14:00.005,n,259,5.4,5.4,5.76,16.8,59.3,1020.82,0,0,0,0,0.031357
2021/08/17 00:15:00.001,n,228,5.76,5.04,6.48,16.8,59.2,1020.82,0,0,0,0,0.033112
2021/08/17 00:16:00.000,n,271,5.04,3.96,5.4,16.9,59.1,1020.82,0,0,0,0,0.028763
2021/08/17 00:17:00.013,n,267,7.92,5.76,9.72,16.9,58.8,1020.72,0,0,0,0,0.034828
2021/08/17 00:18:00.009,n,267,5.76,5.04,6.48,17,58.7,1020.72,0,0,0,0,0.027008
2021/08/17 00:19:00.000,n,211,9,7.92,9.72,17,58.5,1020.72,0,0,0,0,0.036583
2021/08/17 00:20:00.003,n,266,8.64,6.48,10.08,17.1,58.3,1020.72,0,0,0,0,0.027008
2021/08/17 00:21:00.000,n,263,9,7.92,9.72,17.1,58.3,1020.72,0,0,0,0,0.029602
2021/08/17 00:22:00.000,n,250,3.24,2.52,3.6,17.1,58.3,1020.72,0,0,0,0,0.024414
2021/08/17 00:23:00.000,n,250,4.68,3.6,5.76,17.1,58.5,1020.72,0,0,0,0,0.029602
2021/08/17 00:24:00.008,n,215,3.96,2.88,5.4,17.1,58.2,1020.62,0,0,0,0,0.024414
2021/08/17 00:25:00.005,n,228,1.44,0.36,1.8,17.1,58.5,1020.62,0,0,0,0,0.027008
2021/08/17 00:26:00.002,n,329,3.6,2.88,4.68,17.1,60.7,1020.62,0,0,0,0,0.026131
2021/08/17 00:27:00.015,n,279,2.16,1.8,2.52,17.1,59.4,1020.62,0,0,0,0,0.025253
2021/08/17 00:28:00.000,n,268,2.16,1.44,3.24,17.1,58.6,1020.62,0,0,0,0,0.021782
2021/08/17 00:29:00.000,n,66,2.52,2.16,2.52,17.1,58.8,1020.72,0,0,0,0,0.023537
2021/08/17 00:30:00.000,n,300,4.68,2.16,6.12,17,60.4,1020.72,0,0,0,0,0.026131
2021/08/17 00:31:00.005,n,269,1.44,0.72,1.8,17,59.4,1020.62,0,0,0,0,0.025253
2021/08/17 00:32:00.003,n,53,4.68,4.32,5.4,17,61,1020.62,0,0,0,0,0.023537
2021/08/17 00:33:00.000,n,54,2.88,2.88,3.24,16.8,61.2,1020.62,0,0,0,0,0.024414
2021/08/17 00:34:00.012,n,174,1.44,0.72,3.6,16.6,61.3,1020.62,0,0,0,0,0.024376
2021/08/17 00:35:00.008,n,4,2.88,2.88,3.24,16.6,62.1,1020.52,0,0,0,0,0.028725
2021/08/17 00:36:00.006,n,63,3.24,2.88,4.68,16.5,62.6,1020.52,0,0,0,0,0.033951
2021/08/17 00:37:00.000,n,31,0.72,0.36,1.08,16.5,62.7,1020.52,0,0,0,0,0.029602
2021/08/17 00:38:00.000,n,97,1.44,1.44,1.8,16.5,63,1020.52,0,0,0,0,0.030479
2021/08/17 00:39:00.000,n,99,1.44,1.08,1.44,16.4,63.3,1020.52,0,0,0,0,0.027885
2021/08/17 00:40:00.000,n,57,1.8,1.08,2.52,16.3,63.4,1020.52,0,0,0,0,0.028725
2021/08/17 00:41:00.008,n,105,1.8,1.08,2.16,16.3,63.7,1020.42,0,0,0,0,0.032234
2021/08/17 00:42:00.005,n,132,2.52,2.16,3.24,16.200002,63.8,1020.42,0,0,0,0,0.025253
2021/08/17 00:43:00.002,n,154,2.16,2.16,2.52,16.200002,63.7,1020.42,0,0,0,0,0.025253
2021/08/17 00:44:00.000,n,166,3.24,3.24,3.6,16.1,63.9,1020.42,0,0,0,0,0.027008
2021/08/17 00:45:00.013,n,155,3.96,3.6,3.96,16.1,63.8,1020.42,0,0,0,0,0.023537
2021/08/17 00:46:00.000,n,203,4.68,4.68,5.04,16.1,64.199996,1020.42,0,0,0,0,0.035706
2021/08/17 00:47:00.009,n,218,3.96,3.6,4.32,16.1,63.8,1020.42,0,0,0,0,0.034866
2021/08/17 00:48:00.002,n,235,2.88,2.52,3.24,16.1,64.1,1020.32,0,0,0,0,0.036583
2021/08/17 00:49:00.000,n,260,3.6,3.24,3.6,16.1,63.9,1020.32,0,0,0,0,0.033989
2021/08/17 00:50:00.000,n,264,9.36,9,9.72,16,62.9,1020.32,0,0,0,0,0.031357
2021/08/17 00:51:00.009,n,261,10.440002,10.08,11.16,16.1,61.9,1020.32,0,0,0,0,0.028763
2021/08/17 00:52:00.006,n,258,12.96,12.24,13.68,16.1,61.2,1020.22,0,0,0,0,0.028763
2021/08/17 00:53:00.003,n,261,13.32,11.88,14.4,16.200002,60.7,1020.22,0,0,0,0,0.032234
2021/08/17 00:54:00.000,n,249,8.28,7.2,9,16.3,60.5,1020.22,0,0,0,0,0.023499
2021/08/17 00:55:00.000,n,261,5.4,4.68,5.76,16.4,60.3,1020.22,0,0,0,0,0.027885
2021/08/17 00:56:00.000,n,244,5.4,4.68,5.76,16.4,60.3,1020.22,0,0,0,0,0.031357
2021/08/17 00:57:00.000,n,280,1.8,0.72,2.52,16.4,60.3,1020.22,0,0,0,0,0.022659
2021/08/17 00:58:00.005,n,265,3.24,2.88,3.96,16.4,60.6,1020.32,0,0,0,0,0.022659
2021/08/17 00:59:00.002,n,164,1.44,1.08,1.8,16.4,60.5,1020.22,0,0,0,0,0.027008
2021/08/17 01:00:00.000,n,274,0.72,0.36,0.72,16.4,60.7,1020.22,0,0,0,0,0.022659
2021/08/17 01:01:00.012,n,253,1.8,1.8,2.16,16.3,61.9,1020.32,0,0,0,0,0.017433
2021/08/17 01:02:00.010,n,235,2.16,1.08,3.24,16.3,60.8,1020.32,0,0,0,0,0.017433
2021/08/17 01:03:00.007,n,302,1.08,0.72,1.8,16.4,62.3,1020.32,0,0,0,0,0.027008
2021/08/17 01:04:00.000,n,169,0.36,0,0.72,16.4,60.9,1020.32,0,0,0,0,0.020905
2021/08/17 01:05:00.001,n,269,6.12,5.04,6.48,16.4,61.1,1020.32,0,0,0,0,0.024414
2021/08/17 01:06:00.000,n,284,3.6,3.24,5.4,16.3,60.7,1020.22,0,0,0,0,0.022659
2021/08/17 01:07:00.000,n,280,4.32,3.6,4.68,16.4,61,1020.22,0,0,0,0,0.015717
2021/08/17 01:08:00.000,n,266,5.04,4.32,5.4,16.4,60,1020.22,0,0,0,0,0.027847
2021/08/17 01:09:00.005,n,293,4.32,3.6,5.04,16.4,59.9,1020.22,0,0,0,0,0.032196
2021/08/17 01:10:00.003,n,238,3.96,3.6,4.68,16.4,59.6,1020.32,0,0,0,0,0.035706
2021/08/17 01:11:00.000,n,260,10.08,9.36,11.16,16.4,58.9,1020.22,0,0,0,0,0.031319
2021/08/17 01:12:00.013,n,261,9.72,7.92,11.88,16.4,58.9,1020.22,0,0,0,0,0.033951
2021/08/17 01:13:00.000,n,228,2.88,2.52,3.24,16.4,59,1020.22,0,0,0,0,0.02697
2021/08/17 01:14:00.000,n,235,8.28,7.56,9.36,16.4,58.9,1020.22,0,0,0,0,0.035706
2021/08/17 01:15:00.004,n,272,7.92,7.56,8.64,16.4,58.8,1020.22,0,0,0,0,0.032196
2021/08/17 01:16:00.002,n,213,4.32,2.52,6.84,16.4,58.8,1020.12,0,0,0,0,0.030479
2021/08/17 01:17:00.000,n,245,6.12,5.76,6.84,16.4,58.6,1020.22,0,0,0,0,0.027847
2021/08/17 01:18:00.000,n,279,5.76,5.4,6.48,16.4,59,1020.12,0,0,0,0,0.032196
2021/08/17 01:19:00.009,n,256,2.52,1.44,3.6,16.4,58.7,1020.12,0,0,0,0,0.024338
2021/08/17 01:20:00.006,n,280,1.44,1.08,1.44,16.4,58.8,1020.12,0,0,0,0,0.02697
2021/08/17 01:21:00.005,n,310,1.44,0.36,2.16,16.3,59.1,1020.22,0,0,0,0,0.02697
2021/08/17 01:22:00.002,n,255,3.24,2.88,3.24,16.3,60,1020.22,0,0,0,0,0.029602
2021/08/17 01:23:00.000,n,245,5.04,4.32,5.04,16.3,59.1,1020.22,0,0,0,0,0.029602
2021/08/17 01:24:00.000,n,301,2.52,2.16,3.24,16.3,60.6,1020.22,0,0,0,0,0.029602
2021/08/17 01:25:00.000,n,275,1.8,0.36,3.24,16.3,62.8,1020.22,0,0,0,0,0.027847
2021/08/17 01:26:00.007,n,283,1.8,1.08,2.52,16.3,61.6,1020.22,0,0,0,0,0.026131
2021/08/17 01:27:00.005,n,280,4.32,3.96,5.4,16.3,61.8,1020.22,0,0,0,0,0.025253
2021/08/17 01:28:00.002,n,253,1.44,1.08,2.16,16.3,61.1,1020.22,0,0,0,0,0.026131
2021/08/17 01:29:00.000,n,264,3.96,3.6,4.32,16.200002,60,1020.22,0,0,0,0,0.025253
2021/08/17 01:30:00.012,n,261,6.48,5.04,7.92,16.200002,58.7,1020.22,0,0,0,0,0.023499
2021/08/17 01:31:00.000,n,276,3.6,3.24,3.96,16.1,58.2,1020.22,0,0,0,0,0.022621
2021/08/17 01:32:00.000,n,246,4.32,3.96,4.68,16.1,58.3,1020.22,0,0,0,0,0.022621
2021/08/17 01:33:00.005,n,246,2.16,1.8,2.52,16.1,58.7,1020.22,0,0,0,0,0.023499
2021/08/17 01:34:00.003,n,248,2.16,1.08,2.52,16,59,1020.22,0,0,0,0,0.027847
2021/08/17 01:35:00.000,n,254,1.44,1.08,1.44,16,59.2,1020.22,0,0,0,0,0.019989
2021/08/17 01:36:00.000,n,269,2.52,1.8,3.24,16,59.5,1020.22,0,0,0,0,0.020905
2021/08/17 01:37:00.009,n,267,4.68,3.96,5.4,16,59.3,1020.12,0,0,0,0,0.028725
2021/08/17 01:38:00.006,n,230,2.16,2.16,2.88,15.9,59.3,1020.12,0,0,0,0,0.019989
2021/08/17 01:39:00.003,n,231,6.12,5.04,7.2,15.9,58.6,1020.12,0,0,0,0,0.01915
2021/08/17 01:40:00.001,n,254,4.68,3.6,6.12,15.9,58.6,1020.12,0,0,0,0,0.019989
2021/08/17 01:41:00.000,n,256,5.4,3.96,5.76,15.8,58.3,1020.12,0,0,0,0,0.017395
2021/08/17 01:42:00.000,n,261,12.6,11.88,12.96,15.8,57.4,1020.12,0,0,0,0,0.017395
2021/08/17 01:43:00.000,n,262,7.56,6.84,8.28,15.8,58.1,1020.12,0,0,0,0,0.020905
2021/08/17 01:44:00.006,n,231,7.92,6.48,9.36,15.8,56.6,1020.12,0,0,0,0,0.021744
2021/08/17 01:45:00.004,n,267,7.56,6.48,8.28,15.8,56.6,1020.12,0,0,0,0,0.017395
2021/08/17 01:46:00.001,n,251,7.92,7.56,8.64,15.8,56.7,1020.12,0,0,0,0,0.017395
2021/08/17 01:47:00.013,n,258,7.2,6.48,8.28,15.8,56.1,1020.12,0,0,0,0,0.021744
2021/08/17 01:48:00.010,n,243,8.28,6.84,9.72,15.7,55.8,1020.12,0,0,0,0,0.030479
2021/08/17 01:49:00.000,n,271,7.92,6.48,8.28,15.7,55.8,1020.12,0,0,0,0,0.030479
2021/08/17 01:50:00.000,n,255,8.64,7.92,9.72,15.7,55.5,1020.12,0,0,0,0,0.02964
2021/08/17 01:51:00.000,n,252,6.48,5.76,7.2,15.8,55.2,1020.12,0,0,0,0,0.033112
2021/08/17 01:52:00.000,n,285,6.12,5.04,7.92,15.8,56,1020.12,0,0,0,0,0.033112
2021/08/17 01:53:00.007,n,250,4.32,3.6,5.76,15.7,55.2,1020.12,0,0,0,0,0.030479
2021/08/17 01:54:00.003,n,229,6.48,5.4,7.56,15.7,55.6,1020.02,0,0,0,0,0.027885
2021/08/17 01:55:00.001,n,277,6.12,5.76,6.48,15.7,55.7,1020.12,0,0,0,0,0.032234
2021/08/17 01:56:00.000,n,247,8.28,7.56,9,15.7,55.8,1020.02,0,0,0,0,0.030479
2021/08/17 01:57:00.013,n,248,9.72,8.28,10.8,15.7,54.9,1020.02,0,0,0,0,0.028763
2021/08/17 01:58:00.000,n,260,5.4,4.68,6.48,15.6,55.7,1020.02,0,0,0,0,0.027885
2021/08/17 01:59:00.000,n,271,6.84,6.48,7.2,15.6,54.8,1020.02,0,0,0,0,0.02964
2021/08/17 02:00:00.000,n,265,9,7.92,10.440002,15.6,54.5,1020.02,0,0,0,0,0.033989
2021/08/17 02:01:00.003,n,270,7.92,6.48,9,15.5,54.4,1020.02,0,0,0,0,0.027885
2021/08/17 02:02:00.002,n,241,8.28,4.68,10.08,15.5,54.3,1019.92,0,0,0,0,0.027008
2021/08/17 02:03:00.000,n,274,6.48,5.76,6.84,15.5,54.2,1019.92,0,0,0,0,0.028763
2021/08/17 02:04:00.012,n,253,6.12,5.04,7.2,15.5,54.4,1019.92,0,0,0,0,0.023537
2021/08/17 02:05:00.009,n,246,0.36,0.36,0.36,15.5,54.8,1019.92,0,0,0,0,0.031357
2021/08/17 02:06:00.006,n,198,0.72,0.72,1.44,15.5,55.9,1019.92,0,0,0,0,0.030479
2021/08/17 02:07:00.000,n,156,1.8,1.44,2.16,15.4,56.2,1019.92,0,0,0,0,0.028763
2021/08/17 02:08:00.000,n,258,5.76,5.04,6.12,15.4,55.3,1019.92,0,0,0,0,0.025253
2021/08/17 02:09:00.000,n,182,1.8,1.08,2.16,15.3,55.3,1019.82,0,0,0,0,0.021782
2021/08/17 02:10:00.000,n,217,1.08,0.36,2.16,15.3,56,1019.82,0,0,0,0,0.027008
2021/08/17 02:11:00.007,n,277,3.24,2.16,3.96,15.3,56,1019.82,0,0,0,0,0.025253
2021/08/17 02:12:00.004,n,236,1.08,0.36,1.8,15.2,57.1,1019.72,0,0,0,0,0.027008
2021/08/17 02:13:00.001,n,279,4.32,4.32,4.68,15.2,56.4,1019.72,0,0,0,0,0.023537
2021/08/17 02:14:00.014,n,243,2.88,2.52,3.24,15.1,56.6,1019.72,0,0,0,0,0.025253
2021/08/17 02:15:00.011,n,313,3.24,1.8,3.96,15.1,58.2,1019.72,0,0,0,0,0.022659
2021/08/17 02:16:00.000,n,279,2.88,2.52,3.6,15.1,57,1019.72,0,0,0,0,0.020065
2021/08/17 02:17:00.000,n,278,3.6,2.52,6.48,15.1,57.1,1019.72,0,0,0,0,0.021782
2021/08/17 02:18:00.002,n,261,4.68,3.6,7.2,15,57.4,1019.62,0,0,0,0,0.020905
2021/08/17 02:19:00.000,n,240,3.6,3.24,3.96,15,57.7,1019.62,0,0,0,0,0.021782
2021/08/17 02:20:00.000,n,234,4.32,3.6,5.04,15,58,1019.62,0,0,0,0,0.018272
2021/08/17 02:21:00.009,n,244,3.96,3.6,4.32,14.9,58.2,1019.62,0,0,0,0,0.022659
2021/08/17 02:22:00.005,n,249,1.08,1.08,1.44,14.9,58.4,1019.62,0,0,0,0,0.020905
2021/08/17 02:23:00.003,n,275,1.8,1.44,2.52,14.9,59.2,1019.62,0,0,0,0,0.035667
2021/08/17 02:24:00.014,n,231,1.44,0.36,2.16,14.8,59.1,1019.62,0,0,0,0,0.031319
2021/08/17 02:25:00.000,n,125,1.8,1.8,2.16,14.8,59.1,1019.62,0,0,0,0,0.035667
2021/08/17 02:26:00.000,n,171,3.96,3.6,4.32,14.8,59.3,1019.62,0,0,0,0,0.030479
2021/08/17 02:27:00.000,n,142,3.96,2.88,4.68,14.7,59.1,1019.62,0,0,0,0,0.032196
2021/08/17 02:28:00.003,n,149,2.16,1.44,2.88,14.7,59.3,1019.62,0,0,0,0,0.029602
2021/08/17 02:29:00.000,n,209,0.36,0,0.72,14.7,59.7,1019.62,0,0,0,0,0.029602
2021/08/17 02:30:00.000,n,221,2.16,1.8,2.88,14.7,59.7,1019.62,0,0,0,0,0.025253
2021/08/17 02:31:00.000,n,153,0.72,0.36,0.72,14.7,60.1,1019.62,0,0,0,0,0.031319
2021/08/17 02:32:00.009,n,148,1.8,1.8,2.16,14.6,62.3,1019.62,0,0,0,0,0.028725
2021/08/17 02:33:00.006,n,162,1.8,1.8,2.16,14.6,62,1019.62,0,0,0,0,0.032196
2021/08/17 02:34:00.000,n,136,2.16,1.8,2.16,14.5,62,1019.62,0,0,0,0,0.033951
2021/08/17 02:35:00.000,n,163,1.8,1.44,1.8,14.5,62.1,1019.52,0,0,0,0,0.029602
2021/08/17 02:36:00.000,n,210,1.08,0.72,1.44,14.4,62.3,1019.52,0,0,0,0,0.028725
2021/08/17 02:37:00.000,n,192,1.44,1.08,1.8,14.4,62.8,1019.52,0,0,0,0,0.028725
2021/08/17 02:38:00.008,n,177,2.16,1.8,2.16,14.4,63,1019.52,0,0,0,0,0.026131
2021/08/17 02:39:00.005,n,200,1.44,0.36,1.8,14.4,62.6,1019.52,0,0,0,0,0.023499
2021/08/17 02:40:00.002,n,235,1.44,1.08,1.8,14.3,62.1,1019.52,0,0,0,0,0.025253
2021/08/17 02:41:00.000,n,239,1.8,1.08,2.16,14.3,61.9,1019.52,0,0,0,0,0.026131
2021/08/17 02:42:00.014,n,253,1.8,1.08,2.16,14.3,60.1,1019.52,0,0,0,0,0.02697
2021/08/17 02:43:00.000,n,259,3.96,3.24,4.32,14.2,59.5,1019.52,0,0,0,0,0.028725
2021/08/17 02:44:00.000,n,166,2.16,1.8,2.52,14.2,60.4,1019.52,0,0,0,0,0.020905
2021/08/17 02:45:00.000,n,227,1.08,0.72,1.44,14.2,60.7,1019.52,0,0,0,0,0.020905
2021/08/17 02:46:00.004,n,159,2.52,1.08,3.24,14.2,60.7,1019.52,0,0,0,0,0.021744
2021/08/17 02:47:00.002,n,173,1.08,0.72,1.44,14.3,60.6,1019.42,0,0,0,0,0.019989
2021/08/17 02:48:00.000,n,255,2.16,1.8,2.88,14.3,60,1019.42,0,0,0,0,0.01915
2021/08/17 02:49:00.011,n,162,2.16,1.8,2.52,14.2,59.2,1019.42,0,0,0,0,0.033112
2021/08/17 02:50:00.004,n,174,0.36,0.36,0.36,14.2,58.5,1019.42,0,0,0,0,0.036583
2021/08/17 02:51:00.001,n,137,1.44,1.08,1.44,14.2,59.6,1019.42,0,0,0,0,0.033989
2021/08/17 02:52:00.000,n,208,2.16,1.44,2.52,14.2,58.6,1019.42,0,0,0,0,0.033112
2021/08/17 02:53:00.000,n,182,2.16,1.44,2.52,14.3,59.3,1019.42,0,0,0,0,0.027847
2021/08/17 02:54:00.000,n,106,0.72,0.36,1.08,14.3,58.7,1019.42,0,0,0,0,0.029602
2021/08/17 02:55:00.000,n,354,0.72,0.36,1.08,14.3,59.5,1019.42,0,0,0,0,0.029602
2021/08/17 02:56:00.005,n,233,2.52,1.8,2.52,14.3,59.8,1019.42,0,0,0,0,0.027008
2021/08/17 02:57:00.003,n,225,1.44,0.72,2.16,14.2,59,1019.42,0,0,0,0,0.024414
2021/08/17 02:58:00.000,n,154,3.6,2.88,4.32,14.2,60,1019.32,0,0,0,0,0.029602
2021/08/17 02:59:00.013,n,241,1.44,0.72,1.44,14.2,59.8,1019.32,0,0,0,0,0.027008
2021/08/17 03:00:00.011,n,269,1.8,1.44,2.52,14.2,58.9,1019.32,0,0,0,0,0.027847
2021/08/17 03:01:00.000,n,280,3.24,2.52,4.32,14.2,58.9,1019.32,0,0,0,0,0.027847
2021/08/17 03:02:00.000,n,290,1.44,0.36,2.52,14.2,60.2,1019.32,0,0,0,0,0.026131
2021/08/17 03:03:00.002,n,260,4.68,4.32,5.04,14.2,59.2,1019.32,0,0,0,0,0.027008
2021/08/17 03:04:00.000,n,341,2.52,0.72,3.6,14.1,59.8,1019.32,0,0,0,0,0.027847
2021/08/17 03:05:00.000,n,290,1.44,0.72,2.52,14.1,58.6,1019.22,0,0,0,0,0.024414
2021/08/17 03:06:00.000,n,222,2.52,2.16,2.52,14.1,58,1019.32,0,0,0,0,0.029602
2021/08/17 03:07:00.010,n,173,3.96,2.52,4.68,14.1,58.1,1019.32,0,0,0,0,0.026131
2021/08/17 03:08:00.007,n,163,5.04,4.68,5.4,14.1,58.4,1019.32,0,0,0,0,0.01915
2021/08/17 03:09:00.004,n,136,3.24,2.88,3.96,14.1,58.7,1019.22,0,0,0,0,0.022621
2021/08/17 03:10:00.002,n,165,1.44,0.72,1.8,14.1,59.2,1019.22,0,0,0,0,0.02697
2021/08/17 03:11:00.001,n,312,2.52,1.08,3.24,14,59,1019.22,0,0,0,0,0.032234
2021/08/17 03:12:00.000,n,256,1.44,1.44,1.8,14,57.7,1019.22,0,0,0,0,0.030479
2021/08/17 03:13:00.000,n,255,3.24,2.52,3.96,14,56.9,1019.22,0,0,0,0,0.033073
2021/08/17 03:14:00.008,n,245,6.12,5.04,6.84,13.9,56,1019.22,0,0,0,0,0.037422
2021/08/17 03:15:00.007,n,261,6.12,5.4,6.84,14,56.1,1019.22,0,0,0,0,0.034828
2021/08/17 03:16:00.004,n,269,4.32,3.96,5.04,14,56.4,1019.22,0,0,0,0,0.032234
2021/08/17 03:17:00.000,n,263,5.76,4.32,6.48,14,55.7,1019.12,0,0,0,0,0.033951
2021/08/17 03:18:00.014,n,269,3.6,3.6,3.96,14,55.9,1019.12,0,0,0,0,0.031319
2021/08/17 03:19:00.000,n,268,1.8,1.08,2.16,14.1,56.1,1019.12,0,0,0,0,0.027885
2021/08/17 03:20:00.000,n,267,1.44,1.08,2.52,14.1,56.1,1019.22,0,0,0,0,0.031319
2021/08/17 03:21:00.000,n,257,2.16,1.8,2.52,14.1,56.5,1019.22,0,0,0,0,0.032234
2021/08/17 03:22:00.003,n,268,2.88,1.8,3.6,14,56.1,1019.22,0,0,0,0,0.02697
2021/08/17 03:23:00.000,n,284,1.8,0.72,2.16,14,56.3,1019.22,0,0,0,0,0.025253
2021/08/17 03:24:00.000,n,161,1.44,0.72,2.52,14,55.9,1019.22,0,0,0,0,0.030479
2021/08/17 03:25:00.010,n,176,0.72,0.36,1.08,14,55.9,1019.22,0,0,0,0,0.02697
2021/08/17 03:26:00.008,n,212,1.8,1.44,2.16,14,56.2,1019.22,0,0,0,0,0.030479
2021/08/17 03:27:00.005,n,205,2.88,2.52,3.96,14,56.1,1019.22,0,0,0,0,0.025253
2021/08/17 03:28:00.000,n,279,1.8,1.08,2.88,14,56.3,1019.22,0,0,0,0,0.033951
2021/08/17 03:29:00.000,n,135,0.72,0.36,1.08,14,56.3,1019.22,0,0,0,0,0.02697
2021/08/17 03:30:00.000,n,104,1.08,0.72,1.44,14,55.9,1019.22,0,0,0,0,0.031319
2021/08/17 03:31:00.000,n,243,2.52,2.16,2.88,13.9,55.5,1019.22,0,0,0,0,0.026093
2021/08/17 03:32:00.007,n,232,1.8,0.36,2.52,13.9,55.8,1019.22,0,0,0,0,0.023499
2021/08/17 03:33:00.004,n,239,1.08,1.08,1.44,13.9,56.4,1019.22,0,0,0,0,0.025253
2021/08/17 03:34:00.001,n,228,1.44,1.44,1.8,13.9,56.3,1019.22,0,0,0,0,0.025253
2021/08/17 03:35:00.000,n,236,1.44,0.72,1.8,13.9,55.8,1019.22,0,0,0,0,0.026093
2021/08/17 03:36:00.011,n,95,0.36,0,0.72,13.8,55.9,1019.22,0,0,0,0,0.025253
2021/08/17 03:37:00.000,n,130,2.88,2.88,3.24,13.8,56.1,1019.22,0,0,0,0,0.025253
2021/08/17 03:38:00.000,n,137,2.88,2.16,2.88,13.8,55.8,1019.22,0,0,0,0,0.026093
2021/08/17 03:39:00.003,n,147,0.72,0.72,1.08,13.8,55.5,1019.22,0,0,0,0,0.023499
2021/08/17 03:40:00.000,n,134,1.44,1.08,1.44,13.8,56.5,1019.22,0,0,0,0,0.025253
2021/08/17 03:41:00.000,n,171,2.16,1.44,2.16,13.8,57.5,1019.22,0,0,0,0,0.024376
2021/08/17 03:42:00.000,n,266,1.8,1.44,2.88,13.8,57.8,1019.22,0,0,0,0,0.023499
2021/08/17 03:43:00.008,n,185,3.96,3.6,4.68,13.8,56.5,1019.22,0,0,0,0,0.026093
2021/08/17 03:44:00.006,n,204,1.8,1.44,2.52,13.8,55.6,1019.22,0,0,0,0,0.023499
2021/08/17 03:45:00.002,n,258,1.44,0.72,2.52,13.8,56.2,1019.22,0,0,0,0,0.018272
2021/08/17 03:46:00.000,n,262,3.24,2.88,3.6,13.8,55.8,1019.22,0,0,0,0,0.021744
2021/08/17 03:47:00.000,n,272,4.68,4.32,5.04,13.7,55.6,1019.22,0,0,0,0,0.021744
2021/08/17 03:48:00.000,n,245,2.52,2.16,2.52,13.7,55.1,1019.22,0,0,0,0,0.02964
2021/08/17 03:49:00.001,n,268,3.6,2.88,4.32,13.7,55,1019.22,0,0,0,0,0.035706
2021/08/17 03:50:00.000,n,194,1.8,1.44,2.52,13.7,54.3,1019.22,0,0,0,0,0.036583
2021/08/17 03:51:00.000,n,216,1.8,1.44,2.16,13.7,55.4,1019.22,0,0,0,0,0.035706
2021/08/17 03:52:00.010,n,132,2.16,2.16,2.16,13.7,55.3,1019.22,0,0,0,0,0.033989
2021/08/17 03:53:00.008,n,165,1.08,1.08,1.44,13.7,54.9,1019.22,0,0,0,0,0.033073
2021/08/17 03:54:00.004,n,153,2.88,2.52,3.24,13.7,55.2,1019.22,0,0,0,0,0.033989
2021/08/17 03:55:00.001,n,195,3.6,2.88,3.6,13.7,55.2,1019.22,0,0,0,0,0.033073
2021/08/17 03:56:00.000,n,146,3.24,2.88,3.96,13.7,55.9,1019.22,0,0,0,0,0.033073
2021/08/17 03:57:00.000,n,187,4.32,3.24,5.4,13.7,56.1,1019.22,0,0,0,0,0.032234
2021/08/17 03:58:00.000,n,171,1.44,1.08,1.8,13.7,56.3,1019.22,0,0,0,0,0.032234
2021/08/17 03:59:00.006,n,177,3.96,3.6,4.32,13.7,56.5,1019.22,0,0,0,0,0.031357
2021/08/17 04:00:00.003,n,151,4.68,3.96,6.48,13.7,57.9,1019.22,0,0,0,0,0.031357
2021/08/17 04:01:00.000,n,162,6.48,5.4,7.2,13.6,58.8,1019.22,0,0,0,0,0.028725
2021/08/17 04:02:00.013,n,159,3.24,3.24,3.6,13.6,58.9,1019.22,0,0,0,0,0.02964
2021/08/17 04:03:00.011,n,195,5.04,4.68,5.4,13.5,59.9,1019.22,0,0,0,0,0.027847
2021/08/17 04:04:00.000,n,183,2.88,2.52,2.88,13.4,59.9,1019.22,0,0,0,0,0.027008
2021/08/17 04:05:00.000,n,169,1.44,0.72,2.16,13.4,60.1,1019.22,0,0,0,0,0.030479
2021/08/17 04:06:00.002,n,172,3.24,2.16,4.32,13.4,58.9,1019.22,0,0,0,0,0.02964
2021/08/17 04:07:00.000,n,221,3.6,3.24,3.96,13.3,58.6,1019.22,0,0,0,0,0.022659
2021/08/17 04:08:00.000,n,152,1.8,0.72,2.52,13.3,59.2,1019.22,0,0,0,0,0.028725
2021/08/17 04:09:00.009,n,119,1.8,1.44,1.8,13.3,59.3,1019.22,0,0,0,0,0.02964
2021/08/17 04:10:00.006,n,251,0.72,0.36,1.08,13.3,58.2,1019.22,0,0,0,0,0.027847
2021/08/17 04:11:00.003,n,114,2.16,1.08,3.24,13.3,58.6,1019.22,0,0,0,0,0.031357
2021/08/17 04:12:00.001,n,193,3.24,3.24,3.6,13.3,57.3,1019.22,0,0,0,0,0.032234
2021/08/17 04:13:00.000,n,189,1.8,1.08,2.16,13.3,58.1,1019.22,0,0,0,0,0.026131
2021/08/17 04:14:00.000,n,184,1.08,0.36,1.44,13.3,57.7,1019.22,0,0,0,0,0.022659
2021/08/17 04:15:00.000,n,191,5.4,4.32,5.76,13.3,58.1,1019.22,0,0,0,0,0.025253
2021/08/17 04:16:00.000,n,146,3.6,2.16,3.96,13.3,57.4,1019.22,0,0,0,0,0.024376
2021/08/17 04:17:00.005,n,171,2.88,1.08,4.32,13.3,57.5,1019.22,0,0,0,0,0.024376
2021/08/17 04:18:00.002,n,179,2.16,1.8,2.52,13.3,57.3,1019.22,0,0,0,0,0.024376
2021/08/17 04:19:00.000,n,182,2.52,1.8,3.6,13.2,57.9,1019.22,0,0,0,0,0.022659
2021/08/17 04:20:00.013,n,148,1.08,0.72,1.44,13.2,58.1,1019.32,0,0,0,0,0.021782
2021/08/17 04:21:00.010,n,205,4.32,3.6,5.04,13.2,57.5,1019.32,0,0,0,0,0.022659
2021/08/17 04:22:00.000,n,161,3.24,2.88,3.6,13.2,57.6,1019.32,0,0,0,0,0.022659
2021/08/17 04:23:00.000,n,189,4.32,3.6,4.68,13.2,57.4,1019.32,0,0,0,0,0.024376
2021/08/17 04:24:00.000,n,141,3.24,2.16,3.6,13.1,58.9,1019.32,0,0,0,0,0.023499
2021/08/17 04:25:00.000,n,167,1.44,1.08,1.8,13.1,58.4,1019.32,0,0,0,0,0.027885
2021/08/17 04:26:00.000,n,162,1.44,1.08,2.16,13.1,58.2,1019.32,0,0,0,0,0.02964
2021/08/17 04:27:00.007,n,163,2.52,2.16,2.88,13.1,57.5,1019.32,0,0,0,0,0.035744
2021/08/17 04:28:00.004,n,214,2.16,1.8,2.52,13,58,1019.32,0,0,0,0,0.033989
2021/08/17 04:29:00.000,n,137,1.8,1.44,2.88,13,58.4,1019.42,0,0,0,0,0.028763
2021/08/17 04:30:00.014,n,239,3.24,2.88,3.6,13,58,1019.42,0,0,0,0,0.027885
2021/08/17 04:31:00.000,n,187,1.08,0.36,1.44,13,58.1,1019.42,0,0,0,0,0.033989
2021/08/17 04:32:00.000,n,122,3.24,2.52,3.96,13,57.6,1019.42,0,0,0,0,0.031395
2021/08/17 04:33:00.005,n,219,1.8,0.36,3.96,13,57.9,1019.42,0,0,0,0,0.027885
2021/08/17 04:34:00.001,n,149,2.88,2.52,3.24,13,57.6,1019.42,0,0,0,0,0.027885
2021/08/17 04:35:00.000,n,239,5.04,4.68,5.4,13,57.3,1019.42,0,0,0,0,0.031395
2021/08/17 04:36:00.000,n,172,3.96,3.24,4.68,13,57.3,1019.42,0,0,0,0,0.022659
2021/08/17 04:37:00.010,n,191,5.04,3.96,6.48,13,56.9,1019.42,0,0,0,0,0.025253
2021/08/17 04:38:00.008,n,153,1.8,1.8,2.52,13,57.3,1019.42,0,0,0,0,0.027885
2021/08/17 04:39:00.005,n,260,3.24,2.88,3.6,13,57.2,1019.42,0,0,0,0,0.031395
2021/08/17 04:40:00.003,n,194,3.24,2.88,3.6,12.9,57.5,1019.52,0,0,0,0,0.027008
2021/08/17 04:41:00.000,n,169,4.32,3.6,5.04,12.9,56.9,1019.52,0,0,0,0,0.024414
2021/08/17 04:42:00.000,n,175,3.96,2.52,5.04,12.9,57.4,1019.52,0,0,0,0,0.028725
2021/08/17 04:43:00.000,n,11,0.72,0,1.8,12.9,57.5,1019.52,0,0,0,0,0.029602
2021/08/17 04:44:00.006,n,192,1.44,0.72,2.16,12.9,57.5,1019.52,0,0,0,0,0.032196
2021/08/17 04:45:00.003,n,154,1.8,1.08,2.52,12.9,57.4,1019.52,0,0,0,0,0.02697
2021/08/17 04:46:00.000,n,248,1.8,1.44,2.16,12.9,57.3,1019.52,0,0,0,0,0.027847
2021/08/17 04:47:00.013,n,123,3.6,2.88,3.96,12.9,57.6,1019.52,0,0,0,0,0.02697
2021/08/17 04:48:00.010,n,124,0.36,0.36,0.72,12.9,57.1,1019.52,0,0,0,0,0.030479
2021/08/17 04:49:00.000,n,210,1.44,0.72,2.16,12.9,58.7,1019.52,0,0,0,0,0.028725
2021/08/17 04:50:00.000,n,236,5.76,5.04,6.12,12.9,57.4,1019.52,0,0,0,0,0.027847
2021/08/17 04:51:00.000,n,170,0.72,0.36,1.08,12.9,57.2,1019.52,0,0,0,0,0.029602
2021/08/17 04:52:00.000,n,116,1.44,0.72,2.16,12.9,56.5,1019.62,0,0,0,0,0.028725
2021/08/17 04:53:00.000,n,164,2.88,2.16,3.6,12.9,56.9,1019.62,0,0,0,0,0.030479
2021/08/17 04:54:00.008,n,99,1.08,0.72,1.08,12.9,56.5,1019.62,0,0,0,0,0.02697
2021/08/17 04:55:00.005,n,144,3.96,3.24,4.32,12.8,57,1019.62,0,0,0,0,0.025253